CW2551 Weather Reports


Display with metric or nautical units.
time (UTC)temp
F
wind
direction
speed
MPH
gust
MPH
rain 1hr
in
rain 24hr
in
rain mn
in
humidity
%
barometer
mb
20260906214103 64 221 0.0 0.0 0.02 0.13 0.03 75 1016.4
20260906214021 62 221 0.0 0.0 0.02 0.13 0.03 78 1016.4
20260906213604 62 221 0.0 0.0 0.02 0.13 0.03 78 1016.4
20260906213103 62 221 0.0 0.0 0.02 0.13 0.03 75 1016.4
20260906213023 64 221 0.0 0.0 0.01 0.12 0.02 70 1016.4
20260906212604 64 221 0.0 0.0 0.01 0.12 0.02 70 1016.4
20260906212104 66 222 1.0 3.0 0.00 0.11 0.01 67 1016.4
20260906211103 67 293 0.0 3.0 0.00 0.11 0.01 57 1016.2
20260906210604 68 277 2.0 9.0 0.00 0.11 0.01 55 1016.1
20260906210104 68 202 0.0 2.0 0.00 0.11 0.01 56 1016.0
20260906205604 69 272 0.0 0.0 0.00 0.11 0.01 54 1015.9
20260906205104 68 358 0.0 3.0 0.00 0.11 0.01 54 1016.0
20260906205021 68 352 2.0 5.0 0.00 0.11 0.01 58 1015.9
20260906204604 68 352 2.0 5.0 0.00 0.11 0.01 58 1015.9
20260906204104 68 344 2.0 5.0 0.00 0.11 0.01 56 1015.8
20260906204020 68 351 4.0 6.0 0.00 0.11 0.01 59 1015.9
20260906203604 68 351 4.0 6.0 0.00 0.11 0.01 59 1015.9
20260906203104 68 355 2.0 8.0 0.00 0.11 0.01 56 1015.8
20260906202604 68 46 0.0 6.0 0.00 0.11 0.01 55 1015.8
20260906202104 67 65 1.0 3.0 0.00 0.11 0.01 60 1015.9
20260906202022 67 119 1.0 3.0 0.00 0.11 0.01 59 1015.9
20260906201603 67 119 1.0 3.0 0.00 0.11 0.01 59 1015.9
20260906201104 65 138 0.0 3.0 0.00 0.11 0.01 59 1015.9
20260906201021 66 135 0.0 0.0 0.00 0.11 0.01 59 1016.0
20260906200603 66 135 0.0 0.0 0.00 0.11 0.01 59 1016.0
20260906200024 65 40 0.0 0.0 0.00 0.11 0.01 63 1016.1
20260906195104 65 40 0.0 3.0 0.00 0.11 0.01 63 1016.1
20260906194604 65 46 0.0 3.0 0.00 0.11 0.01 66 1016.2
20260906194104 64 5 2.0 5.0 0.00 0.11 0.01 66 1016.3
20260906194021 64 47 0.0 3.0 0.00 0.11 0.01 69 1016.4
20260906193604 64 47 0.0 3.0 0.00 0.11 0.01 69 1016.4
20260906193103 63 49 0.0 0.0 0.00 0.11 0.01 65 1016.4
20260906193023 64 49 0.0 3.0 0.00 0.11 0.01 64 1016.4
20260906192604 64 49 0.0 3.0 0.00 0.11 0.01 64 1016.4
20260906192021 65 351 1.0 3.0 0.00 0.11 0.01 64 1016.3
20260906191603 65 351 1.0 3.0 0.00 0.11 0.01 64 1016.3
20260906191104 65 56 3.0 5.0 0.00 0.11 0.01 63 1016.4
20260906190604 65 135 2.0 3.0 0.00 0.11 0.01 64 1016.4
20260906190104 64 121 0.0 2.0 0.00 0.11 0.01 64 1016.4
20260906190022 64 24 0.0 2.0 0.00 0.11 0.01 67 1016.5
20260906185104 63 4 0.0 0.0 0.00 0.11 0.01 66 1016.5
20260906185020 62 349 0.0 0.0 0.00 0.11 0.01 67 1016.5
20260906184021 61 348 0.0 0.0 0.00 0.11 0.01 69 1016.5
20260906183604 61 348 0.0 0.0 0.00 0.11 0.01 69 1016.5
20260906183104 62 355 1.0 3.0 0.00 0.11 0.01 71 1016.5
20260906183022 63 16 1.0 3.0 0.00 0.11 0.01 68 1016.5
20260906182604 63 16 1.0 3.0 0.00 0.11 0.01 68 1016.5
20260906182020 63 82 1.0 5.0 0.00 0.11 0.01 71 1016.4
20260906181603 63 82 1.0 5.0 0.00 0.11 0.01 71 1016.4
20260906181104 63 105 0.0 6.0 0.00 0.11 0.01 73 1016.5
20260906181020 62 144 2.0 3.0 0.00 0.11 0.01 73 1016.5
20260906180104 61 64 0.0 0.0 0.00 0.11 0.01 77 1016.4
20260906180022 60 63 0.0 0.0 0.00 0.11 0.01 77 1016.4
20260906175604 60 63 0.0 0.0 0.00 0.11 0.01 77 1016.4
20260906175104 60 63 0.0 0.0 0.00 0.11 0.01 75 1016.4
20260906175021 60 69 0.0 3.0 0.00 0.11 0.01 76 1016.3
20260906174604 60 69 0.0 3.0 0.00 0.11 0.01 76 1016.3
20260906174103 60 15 1.0 2.0 0.00 0.11 0.01 81 1016.3
20260906174021 59 355 1.0 3.0 0.00 0.11 0.01 82 1016.3
20260906173604 59 355 1.0 3.0 0.00 0.11 0.01 82 1016.3
20260906173103 58 351 0.0 0.0 0.00 0.11 0.01 84 1016.2
20260906173023 57 355 0.0 0.0 0.00 0.11 0.01 85 1016.3
20260906172021 57 338 0.0 0.0 0.00 0.11 0.01 88 1016.2
20260906171604 57 338 0.0 0.0 0.00 0.11 0.01 88 1016.2
20260906171104 56 10 0.0 0.0 0.01 0.11 0.01 89 1016.3
20260906170604 56 17 0.0 0.0 0.01 0.11 0.01 89 1016.3
20260906170106 56 19 0.0 0.0 0.01 0.11 0.01 90 1016.3
20260906170023 56 7 0.0 0.0 0.01 0.11 0.01 90 1016.3
20260906165604 56 7 0.0 0.0 0.01 0.11 0.01 90 1016.3
20260906165104 56 34 0.0 0.0 0.01 0.11 0.01 90 1016.2
20260906165020 55 14 0.0 0.0 0.01 0.11 0.01 91 1016.3
20260906164603 55 14 0.0 0.0 0.01 0.11 0.01 91 1016.3
20260906164104 55 5 0.0 0.0 0.01 0.11 0.01 91 1016.3
20260906164020 55 355 2.0 5.0 0.01 0.11 0.01 91 1016.3
20260906163022 56 329 0.0 0.0 0.01 0.11 0.01 93 1016.3
20260906162604 56 329 0.0 0.0 0.01 0.11 0.01 93 1016.3
20260906162103 56 329 0.0 0.0 0.01 0.11 0.01 93 1016.3
20260906161604 56 327 0.0 0.0 0.01 0.11 0.01 93 1016.3
20260906161104 55 327 0.0 0.0 0.00 0.10 0.00 93 1016.3
20260906161020 55 327 0.0 0.0 0.00 0.10 0.00 93 1016.3
20260906160604 55 327 0.0 0.0 0.00 0.10 0.00 93 1016.3
20260906160103 55 327 0.0 0.0 0.00 0.10 0.00 93 1016.3
20260906160022 55 328 0.0 0.0 0.00 0.10 0.00 93 1016.2
20260906155604 55 328 0.0 0.0 0.00 0.10 0.00 93 1016.2
20260906155104 55 347 0.0 0.0 0.00 0.10 0.00 93 1016.2
20260906155021 55 347 0.0 0.0 0.00 0.10 0.00 93 1016.1
20260906154104 55 347 0.0 0.0 0.00 0.10 0.00 93 1016.0
20260906154020 55 347 0.0 0.0 0.00 0.10 0.00 93 1016.0
20260906153103 55 347 0.0 0.0 0.00 0.10 0.00 93 1016.0
20260906153023 55 341 0.0 0.0 0.00 0.10 0.00 93 1016.0
20260906152603 55 341 0.0 0.0 0.00 0.10 0.00 93 1016.0
20260906152104 55 10 0.0 0.0 0.00 0.10 0.00 93 1016.0
20260906152020 55 10 0.0 0.0 0.00 0.10 0.00 93 1015.9
20260906151603 55 10 0.0 0.0 0.00 0.10 0.00 93 1015.9
20260906151021 55 10 0.0 0.0 0.00 0.10 0.00 93 1015.8
20260906150604 55 10 0.0 0.0 0.00 0.10 0.00 93 1015.8
20260906150103 55 11 0.0 0.0 0.00 0.10 0.00 93 1015.8
20260906145603 55 18 0.0 0.0 0.00 0.10 0.00 93 1015.7
20260906145104 55 121 0.0 0.0 0.00 0.10 0.00 93 1015.6
20260906145020 55 136 0.0 0.0 0.00 0.10 0.00 93 1015.6
20260906144603 55 136 0.0 0.0 0.00 0.10 0.00 93 1015.6
20260906144104 55 138 0.0 0.0 0.00 0.10 0.00 93 1015.4
20260906143604 55 138 0.0 0.0 0.00 0.10 0.00 93 1015.4
20260906143104 55 149 0.0 0.0 0.00 0.10 0.00 93 1015.3
20260906143022 55 150 0.0 0.0 0.00 0.10 0.00 93 1015.2
20260906142103 55 150 0.0 0.0 0.00 0.10 0.00 93 1015.2
20260906142021 55 150 0.0 0.0 0.00 0.10 0.00 93 1015.0
20260906141104 55 150 0.0 0.0 0.00 0.10 0.00 93 1015.0
20260906141021 55 150 0.0 0.0 0.00 0.10 0.00 93 1014.9
20260906140603 55 150 0.0 0.0 0.00 0.10 0.00 93 1014.9
20260906140104 55 150 0.0 0.0 0.00 0.10 0.00 93 1014.8
20260906140023 55 150 0.0 0.0 0.00 0.10 0.00 93 1014.8
20260906135603 55 150 0.0 0.0 0.00 0.10 0.00 93 1014.8
20260906135104 55 150 0.0 0.0 0.00 0.10 0.00 93 1014.8
20260906134604 55 150 0.0 0.0 0.00 0.10 0.00 93 1014.8
20260906134104 55 150 0.0 0.0 0.00 0.10 0.00 93 1014.7
20260906134021 55 150 0.0 0.0 0.00 0.10 0.00 93 1014.7
20260906133604 55 150 0.0 0.0 0.00 0.10 0.00 93 1014.7
20260906133104 55 150 0.0 0.0 0.00 0.10 0.00 93 1014.7
20260906133020 55 150 0.0 0.0 0.00 0.10 0.00 93 1014.7
20260906132603 55 150 0.0 0.0 0.00 0.10 0.00 93 1014.7
20260906132104 55 150 0.0 0.0 0.00 0.10 0.00 93 1014.7
20260906132020 55 150 0.0 0.0 0.00 0.10 0.00 93 1014.6
20260906131604 55 150 0.0 0.0 0.00 0.10 0.00 93 1014.6
20260906131020 55 150 0.0 0.0 0.00 0.10 0.00 93 1014.7
20260906130604 55 150 0.0 0.0 0.00 0.10 0.00 93 1014.7
20260906130104 55 150 0.0 0.0 0.00 0.10 0.00 93 1014.6
20260906130020 55 150 0.0 0.0 0.00 0.10 0.00 93 1014.7
20260906125604 55 150 0.0 0.0 0.00 0.10 0.00 93 1014.7
20260906125104 55 150 0.0 0.0 0.00 0.10 0.00 92 1014.7
20260906125021 55 150 0.0 0.0 0.00 0.10 0.00 92 1014.6
20260906124604 55 150 0.0 0.0 0.00 0.10 0.00 92 1014.6
20260906124103 55 150 0.0 0.0 0.00 0.10 0.00 92 1014.6
20260906124020 55 150 0.0 0.0 0.00 0.10 0.00 92 1014.6
20260906123603 55 150 0.0 0.0 0.00 0.10 0.00 92 1014.6
20260906123021 55 150 0.0 0.0 0.00 0.10 0.00 93 1014.6
20260906122604 55 150 0.0 0.0 0.00 0.10 0.00 93 1014.6
20260906122103 55 150 0.0 0.0 0.00 0.10 0.00 93 1014.7
20260906121603 55 150 0.0 0.0 0.00 0.10 0.00 93 1014.6
20260906121021 55 150 0.0 0.0 0.00 0.10 0.00 93 1014.8
20260906120604 55 150 0.0 0.0 0.00 0.10 0.00 93 1014.8
20260906120103 55 150 0.0 0.0 0.00 0.10 0.00 93 1014.8
20260906120021 55 150 0.0 0.0 0.00 0.10 0.00 93 1014.9
20260906115604 55 150 0.0 0.0 0.00 0.10 0.00 93 1014.9
20260906115104 55 150 0.0 0.0 0.00 0.10 0.00 93 1014.8
20260906115021 55 150 0.0 0.0 0.00 0.10 0.00 93 1014.8
20260906114604 55 150 0.0 0.0 0.00 0.10 0.00 93 1014.8
20260906114104 55 150 0.0 0.0 0.00 0.10 0.00 93 1014.8
20260906114021 55 150 0.0 0.0 0.00 0.10 0.00 93 1014.8
20260906113604 55 150 0.0 0.0 0.00 0.10 0.00 93 1014.8
20260906113104 55 150 0.0 0.0 0.00 0.10 0.00 93 1014.8
20260906113021 55 148 0.0 0.0 0.00 0.10 0.00 93 1014.8
20260906112604 55 148 0.0 0.0 0.00 0.10 0.00 93 1014.8
20260906112104 55 148 0.0 0.0 0.00 0.10 0.00 93 1014.8
20260906111603 55 148 0.0 0.0 0.00 0.10 0.00 93 1014.9
20260906111104 55 148 0.0 0.0 0.00 0.10 0.00 93 1014.9
20260906111021 55 148 0.0 0.0 0.00 0.10 0.00 93 1014.8
20260906110604 55 148 0.0 0.0 0.00 0.10 0.00 93 1014.8
20260906110104 55 148 0.0 0.0 0.00 0.10 0.00 92 1014.8
20260906110020 55 148 0.0 0.0 0.00 0.10 0.00 92 1014.7
20260906105603 55 148 0.0 0.0 0.00 0.10 0.00 92 1014.7
20260906105104 55 148 0.0 0.0 0.00 0.10 0.00 92 1014.7
20260906105021 55 148 0.0 0.0 0.00 0.10 0.00 92 1014.8
20260906104604 55 148 0.0 0.0 0.00 0.10 0.00 92 1014.8
20260906104104 55 148 0.0 0.0 0.00 0.10 0.00 92 1014.7
20260906104021 55 148 0.0 0.0 0.00 0.10 0.00 92 1014.8
20260906103604 55 148 0.0 0.0 0.00 0.10 0.00 92 1014.8
20260906103104 55 148 0.0 0.0 0.00 0.10 0.00 92 1014.8
20260906103021 55 148 0.0 0.0 0.00 0.10 0.00 92 1014.7
20260906102604 55 148 0.0 0.0 0.00 0.10 0.00 92 1014.7
20260906102103 55 148 0.0 0.0 0.00 0.10 0.00 92 1014.7
20260906102020 55 148 0.0 0.0 0.00 0.10 0.00 92 1014.7
20260906101103 55 148 0.0 0.0 0.00 0.10 0.00 92 1014.7
20260906101021 55 148 0.0 0.0 0.00 0.10 0.00 92 1014.7
20260906100604 55 148 0.0 0.0 0.00 0.10 0.00 92 1014.7
20260906100104 55 148 0.0 0.0 0.00 0.10 0.00 92 1014.7
20260906100020 55 148 0.0 0.0 0.00 0.10 0.00 92 1014.7
20260906095604 55 148 0.0 0.0 0.00 0.10 0.00 92 1014.7
20260906095104 55 148 0.0 0.0 0.00 0.10 0.00 92 1014.7
20260906095020 55 148 0.0 0.0 0.00 0.10 0.00 92 1014.7
20260906094604 55 148 0.0 0.0 0.00 0.10 0.00 92 1014.7
20260906094103 55 148 0.0 0.0 0.00 0.10 0.00 92 1014.7
20260906093604 55 148 0.0 0.0 0.00 0.10 0.00 92 1014.7
20260906093021 55 148 0.0 0.0 0.00 0.10 0.00 92 1014.7
20260906092604 55 148 0.0 0.0 0.00 0.10 0.00 92 1014.7
20260906092104 55 148 0.0 0.0 0.00 0.10 0.00 91 1014.7
20260906092020 55 148 0.0 0.0 0.00 0.10 0.00 91 1014.7
20260906091103 55 148 0.0 0.0 0.00 0.10 0.00 91 1014.7
20260906090604 55 148 0.0 0.0 0.00 0.10 0.00 91 1014.7
20260906090020 55 148 0.0 0.0 0.00 0.10 0.00 91 1014.7
20260906085604 55 148 0.0 0.0 0.00 0.10 0.00 91 1014.7
20260906085104 55 148 0.0 0.0 0.00 0.10 0.00 91 1014.8
20260906085021 55 148 0.0 0.0 0.00 0.10 0.00 91 1014.8
20260906084604 55 148 0.0 0.0 0.00 0.10 0.00 91 1014.8
20260906084103 55 148 0.0 0.0 0.00 0.10 0.00 91 1014.8
20260906084021 55 148 0.0 0.0 0.00 0.10 0.00 91 1014.7
20260906083604 55 148 0.0 0.0 0.00 0.10 0.00 91 1014.7
20260906083103 55 148 0.0 0.0 0.00 0.10 0.00 91 1014.8
20260906083020 55 148 0.0 0.0 0.00 0.10 0.00 91 1014.8
20260906082603 55 148 0.0 0.0 0.00 0.10 0.00 91 1014.8
20260906082021 55 148 0.0 0.0 0.00 0.10 0.00 90 1014.8
20260906081604 55 148 0.0 0.0 0.00 0.10 0.00 90 1014.8
20260906081104 55 148 0.0 0.0 0.00 0.10 0.00 90 1014.8
20260906081020 56 148 0.0 0.0 0.00 0.10 0.00 90 1014.7
20260906080604 56 148 0.0 0.0 0.00 0.10 0.00 90 1014.7
20260906080104 56 148 0.0 0.0 0.00 0.10 0.00 90 1014.7
20260906080020 56 148 0.0 0.0 0.00 0.10 0.00 90 1014.7
20260906075104 56 148 0.0 0.0 0.00 0.10 0.00 90 1014.7
20260906074604 56 148 0.0 0.0 0.00 0.10 0.00 90 1014.8
20260906074104 56 148 0.0 0.0 0.00 0.10 0.00 90 1014.8
20260906074021 56 148 0.0 0.0 0.00 0.10 0.00 90 1014.8
20260906073604 56 148 0.0 0.0 0.00 0.10 0.00 90 1014.8
20260906073104 56 148 0.0 0.0 0.00 0.10 0.00 90 1014.8
20260906073020 57 148 0.0 0.0 0.00 0.10 0.00 90 1014.8
20260906072604 57 148 0.0 0.0 0.00 0.10 0.00 90 1014.8
20260906072104 57 148 0.0 0.0 0.00 0.10 0.00 90 1014.9
20260906072020 57 148 0.0 0.0 0.01 0.10 0.00 90 1015.0
20260906071604 57 148 0.0 0.0 0.01 0.10 0.00 90 1015.0
20260906071104 57 148 0.0 0.0 0.01 0.10 0.00 90 1015.0
20260906070604 57 148 0.0 0.0 0.01 0.10 0.00 90 1014.9
20260906070103 57 148 0.0 0.0 0.01 0.10 0.00 90 1014.8
20260906070020 57 148 0.0 0.0 0.01 0.10 0.10 90 1014.8
20260906065603 57 148 0.0 0.0 0.01 0.10 0.10 90 1014.8
20260906065104 57 148 0.0 0.0 0.01 0.10 0.10 90 1014.8
20260906065022 57 148 0.0 0.0 0.01 0.10 0.10 90 1014.8
20260906064604 57 148 0.0 0.0 0.01 0.10 0.10 90 1014.8
20260906064104 58 148 0.0 0.0 0.01 0.10 0.10 90 1014.9
20260906064020 58 148 0.0 0.0 0.01 0.10 0.10 90 1015.0
20260906063104 58 148 0.0 0.0 0.01 0.10 0.10 90 1015.0
20260906063021 58 148 0.0 0.0 0.01 0.10 0.10 90 1015.1
20260906062604 58 148 0.0 0.0 0.01 0.10 0.10 90 1015.1
20260906062104 58 148 0.0 0.0 0.01 0.10 0.10 90 1015.1
20260906062020 58 148 0.0 0.0 0.00 0.09 0.09 90 1015.1
20260906061603 58 148 0.0 0.0 0.00 0.09 0.09 90 1015.1
20260906061021 58 148 0.0 0.0 0.00 0.09 0.09 90 1015.2
20260906060604 58 148 0.0 0.0 0.00 0.09 0.09 90 1015.2
20260906060104 58 148 0.0 0.0 0.00 0.09 0.09 90 1015.2
20260906060020 58 148 0.0 0.0 0.00 0.09 0.09 90 1015.0
20260906055604 58 148 0.0 0.0 0.00 0.09 0.09 90 1015.0
20260906055104 58 148 0.0 0.0 0.00 0.09 0.09 90 1015.1
20260906055020 58 148 0.0 0.0 0.00 0.09 0.09 90 1015.3
20260906054104 58 148 0.0 0.0 0.00 0.09 0.09 89 1015.3
20260906053604 58 148 0.0 0.0 0.00 0.09 0.09 89 1015.3
20260906053104 58 148 0.0 0.0 0.00 0.09 0.09 89 1015.3
20260906053020 58 148 0.0 0.0 0.00 0.09 0.09 89 1015.3
20260906052604 58 148 0.0 0.0 0.00 0.09 0.09 89 1015.3
20260906052104 58 148 0.0 0.0 0.00 0.09 0.09 89 1015.3
20260906052021 58 148 0.0 0.0 0.00 0.09 0.09 89 1015.2
20260906051604 58 148 0.0 0.0 0.00 0.09 0.09 89 1015.2
20260906051021 58 148 0.0 0.0 0.00 0.09 0.09 89 1015.4
20260906050604 58 148 0.0 0.0 0.00 0.09 0.09 89 1015.4
20260906050104 58 148 0.0 0.0 0.00 0.09 0.09 89 1015.4
20260906050021 58 148 0.0 0.0 0.00 0.09 0.09 89 1015.5
20260906045104 59 148 0.0 0.0 0.00 0.09 0.09 88 1015.4
20260906045021 59 118 0.0 0.0 0.00 0.09 0.09 88 1015.5
20260906044604 59 118 0.0 0.0 0.00 0.09 0.09 88 1015.5
20260906044104 59 118 0.0 0.0 0.00 0.09 0.09 88 1015.5
20260906044021 59 118 0.0 0.0 0.00 0.09 0.09 88 1015.5
20260906043604 59 118 0.0 0.0 0.00 0.09 0.09 88 1015.5
20260906043104 59 118 0.0 0.0 0.00 0.09 0.09 88 1015.5
20260906042604 59 118 0.0 0.0 0.00 0.09 0.09 88 1015.4
20260906042103 59 118 0.0 0.0 0.00 0.09 0.09 88 1015.3
20260906041104 59 118 0.0 0.0 0.00 0.09 0.09 88 1015.3
20260906041020 59 118 0.0 0.0 0.00 0.09 0.09 88 1015.3
20260906040604 59 118 0.0 0.0 0.00 0.09 0.09 88 1015.3
20260906040103 59 118 0.0 0.0 0.00 0.09 0.09 88 1015.2
20260906040021 59 118 0.0 0.0 0.00 0.09 0.09 88 1015.2
20260906035604 59 118 0.0 0.0 0.00 0.09 0.09 88 1015.2
20260906035103 60 118 0.0 0.0 0.00 0.09 0.09 88 1015.1
20260906035021 60 118 0.0 0.0 0.00 0.09 0.09 88 1014.9
20260906034104 60 118 0.0 0.0 0.01 0.09 0.09 88 1014.8
20260906034020 60 118 0.0 0.0 0.01 0.09 0.09 88 1014.8
20260906033603 60 118 0.0 0.0 0.01 0.09 0.09 88 1014.8
20260906033020 60 114 0.0 0.0 0.02 0.09 0.09 88 1014.7
20260906032604 60 114 0.0 0.0 0.02 0.09 0.09 88 1014.7
20260906032103 60 94 0.0 3.0 0.03 0.09 0.09 87 1014.4
20260906032021 60 71 0.0 0.0 0.03 0.09 0.09 87 1014.6
20260906031604 60 71 0.0 0.0 0.03 0.09 0.09 87 1014.6
20260906031103 60 261 0.0 0.0 0.05 0.09 0.09 87 1014.6
20260906031020 60 261 0.0 0.0 0.06 0.09 0.09 86 1014.6
20260906030604 60 261 0.0 0.0 0.06 0.09 0.09 86 1014.6
20260906030104 60 260 0.0 0.0 0.07 0.09 0.09 86 1014.5
20260906030021 60 260 0.0 0.0 0.08 0.09 0.09 85 1014.4
20260906025105 60 260 0.0 0.0 0.09 0.09 0.09 85 1014.4
20260906025021 60 260 0.0 0.0 0.09 0.09 0.09 85 1014.5
20260906024603 60 260 0.0 0.0 0.09 0.09 0.09 85 1014.5
20260906024103 60 261 0.0 0.0 0.08 0.08 0.08 84 1014.4
20260906024021 61 329 0.0 0.0 0.08 0.08 0.08 83 1014.0
20260906023604 61 329 0.0 0.0 0.08 0.08 0.08 83 1014.0
20260906023103 61 223 0.0 0.0 0.07 0.07 0.07 82 1014.0
20260906023023 61 223 0.0 0.0 0.07 0.07 0.07 82 1014.0
20260906022604 61 223 0.0 0.0 0.07 0.07 0.07 82 1014.0
20260906022104 61 223 0.0 0.0 0.06 0.06 0.06 80 1014.0
20260906022021 61 223 0.0 0.0 0.06 0.06 0.06 80 1014.1
20260906021603 61 223 0.0 0.0 0.06 0.06 0.06 80 1014.1
20260906021104 62 224 0.0 3.0 0.04 0.04 0.04 78 1014.0
20260906021021 62 232 2.0 9.0 0.03 0.03 0.03 75 1013.9
20260906020604 62 232 2.0 9.0 0.03 0.03 0.03 75 1013.9
20260906020104 63 230 2.0 10.0 0.02 0.02 0.02 73 1013.6
20260906020023 64 233 3.0 15.0 0.01 0.01 0.01 70 1013.3
20260906015604 64 233 3.0 15.0 0.01 0.01 0.01 70 1013.3
20260906015104 65 223 3.0 12.0 0.00 0.00 0.00 67 1013.2
20260906015020 66 219 3.0 12.0 0.00 0.00 0.00 64 1013.1
20260906014104 67 214 1.0 5.0 0.00 0.00 0.00 61 1012.9
20260906014021 68 224 3.0 6.0 0.00 0.00 0.00 58 1012.8
20260906013603 68 224 3.0 6.0 0.00 0.00 0.00 58 1012.8
20260906013103 69 221 2.0 5.0 0.00 0.00 0.00 54 1012.7
20260906013023 70 223 2.0 5.0 0.00 0.00 0.00 53 1012.7
20260906012604 70 223 2.0 5.0 0.00 0.00 0.00 53 1012.7
20260906012104 71 245 1.0 6.0 0.00 0.00 0.00 49 1012.5
20260906011603 71 264 0.0 0.0 0.00 0.00 0.00 47 1012.4
20260906011104 71 264 0.0 0.0 0.00 0.00 0.00 47 1012.4
20260906011021 71 266 0.0 0.0 0.00 0.00 0.00 48 1012.3
20260906010104 71 273 0.0 0.0 0.00 0.00 0.00 46 1012.3
20260906010023 71 269 0.0 0.0 0.00 0.00 0.00 48 1012.4
20260906005603 71 269 0.0 0.0 0.00 0.00 0.00 48 1012.4
20260906005104 71 351 0.0 0.0 0.00 0.00 0.00 47 1012.3
20260906005020 71 355 0.0 0.0 0.00 0.00 0.00 46 1012.3
20260906004604 71 355 0.0 0.0 0.00 0.00 0.00 46 1012.3
20260906004020 71 348 0.0 0.0 0.00 0.00 0.00 47 1012.3
20260906003103 72 349 0.0 0.0 0.00 0.00 0.00 47 1012.3
20260906002603 72 348 0.0 0.0 0.00 0.00 0.00 49 1012.4
20260906002104 72 348 0.0 0.0 0.00 0.00 0.00 48 1012.4
20260906002020 72 348 0.0 0.0 0.00 0.00 0.00 47 1012.5
20260906001604 72 348 0.0 0.0 0.00 0.00 0.00 47 1012.5
20260906001104 72 348 0.0 0.0 0.00 0.00 0.00 47 1012.4
20260906001020 72 348 0.0 0.0 0.00 0.00 0.00 47 1012.4
20260906000603 72 348 0.0 0.0 0.00 0.00 0.00 47 1012.4
20260906000022 72 0 0.0 0.0 0.00 0.00 0.00 47 1012.4
20260905235103 72 0 0.0 0.0 0.00 0.00 0.00 46 1012.3
20260905235021 72 356 0.0 0.0 0.00 0.00 0.00 46 1012.4
20260905234603 72 356 0.0 0.0 0.00 0.00 0.00 46 1012.4
20260905234104 72 0 0.0 0.0 0.00 0.00 0.00 46 1012.3
20260905233604 72 298 0.0 2.0 0.00 0.00 0.00 46 1012.3
20260905233104 72 344 0.0 0.0 0.00 0.00 0.00 47 1012.4
20260905233023 72 5 1.0 5.0 0.00 0.00 0.00 46 1012.4
20260905232604 72 5 1.0 5.0 0.00 0.00 0.00 46 1012.4
20260905232104 72 355 0.0 3.0 0.00 0.00 0.00 47 1012.4
20260905232022 72 355 1.0 6.0 0.00 0.00 0.00 46 1012.5
20260905231603 72 355 1.0 6.0 0.00 0.00 0.00 46 1012.5
20260905231105 72 355 2.0 6.0 0.00 0.00 0.00 47 1012.6
20260905225604 72 10 0.0 8.0 0.00 0.00 0.00 47 1012.6
20260905225104 72 354 2.0 5.0 0.00 0.00 0.00 48 1012.6
20260905225020 72 313 0.0 3.0 0.00 0.00 0.00 47 1012.7
20260905224104 73 357 2.0 8.0 0.00 0.00 0.00 47 1012.7
20260905224019 73 3 0.0 7.0 0.00 0.00 0.00 48 1012.7
20260905223604 73 3 0.0 7.0 0.00 0.00 0.00 48 1012.7
20260905223104 73 347 1.0 5.0 0.00 0.00 0.00 47 1012.8
20260905223022 73 309 2.0 3.0 0.00 0.00 0.00 48 1012.9
20260905222604 73 309 2.0 3.0 0.00 0.00 0.00 48 1012.9
20260905222020 73 0 1.0 8.0 0.00 0.00 0.00 49 1012.9
20260905221604 73 0 1.0 8.0 0.00 0.00 0.00 49 1012.9
20260905221104 73 3 3.0 8.0 0.00 0.00 0.00 46 1013.1
20260905221020 73 357 0.0 3.0 0.00 0.00 0.00 48 1013.0
20260905220604 73 357 0.0 3.0 0.00 0.00 0.00 48 1013.0
20260905220104 73 250 0.0 0.0 0.00 0.00 0.00 46 1013.1
20260905220021 73 208 0.0 2.0 0.00 0.00 0.00 43 1013.1
20260905215604 73 208 0.0 2.0 0.00 0.00 0.00 43 1013.1
20260905215103 74 351 1.0 5.0 0.00 0.00 0.00 45 1013.2
20260905214603 75 4 3.0 8.0 0.00 0.00 0.00 43 1013.2